Location: Molalla
(45.1473°N, 122.5770°W)
Time: 19:01:39
(UTC-08:00)

Explorer 11/Cluster Stage 4 - Visible Passes

Search period start: 21 November 2019 00:00
Search period end: 01 December 2019 00:00
Orbit: 467 x 1259 km, 28.8° (Epoch: 20 November)

Date Brightness Start Highest point End Pass type
(mag) Time Alt. Az. Time Alt. Az. Time Alt. Az.
23 Nov 9.0 19:42:33 10° SSW 19:42:41 10° SSW 19:42:41 10° SSW visible
24 Nov 8.9 19:32:12 10° SSW 19:32:36 11° SSW 19:32:36 11° SSW visible
25 Nov 8.8 19:22:01 10° SSW 19:22:33 11° S 19:22:33 11° S visible
